GALASSIA

Last updated on Mon Dec 11 2023 00:03:37 GMT+0000 (Greenwich Mean Time)

1 41170U 15077E 23343.13624618 .00570238 00000+0 16153-2 0 9991 2 41170 14.9813 308.5244 0005515 185.4524 174.5748 15.90738573443322

Satellite not in orbit